Location: Chiroubles
(46.1812°N, 4.6660°E)
Time: 18:37:53
(UTC+00:00)

Cosmos 2333 - Pass Details

Date: 15 August 2020
Orbit: 830 x 866 km, 70.9° (Epoch: 23 September)

Event Time Altitude Azimuth Distance (km) Brightness Sun altitude
Rises 22:03:03 0° 332° (NNW) 3,459 8.7 -25.8°
Reaches altitude 10° 22:05:32 10° 331° (NNW) 2,517 7.7 -26.0°
Maximum altitude 22:11:20 80° 246° (WSW) 881 4.2 -26.5°
Enters shadow 22:11:47 74° 194° (SSW) 899 4.1 -26.5°
